Content
SEND FEEDBACK

Daily
Averages
Monthly
Summary
United States of America

POWERSITE, MISSOURI


Home > North America > United States > Missouri
Elevation: 758 feet     Latitude: 36 40N     Longitude: 093 07W

WEATHER
 
SELECT A DAY
Number of Records: 88,959;   Date Range: 2/10/09 - 9/29/14
 
SHARE

PRINT THIS DATA

[ ← Previous Day ]
WEATHER ALMANAC - JANUARY 7, 2013
[ Next Day → ]
[ °C ]   °F
Weather ElementAverageHighLow
Temperature34.5 °F50 °F (1:51 pm)26.6 °F (1:35 am)
Dewpoint20.8 °F26.6 °F (8:45 pm)17.6 °F (12:35 am)
Humidity59.4 %80 % (4:55 am)35 % (1:51 pm)
Barometer30.26 in30.36 in (1:15 am)30.14 in (10:35 pm)
Wind Speed5.6 mph16.1 mph (10:46 am)
Wind Gust20.7 mph (10:46 am)
Weather ElementAverage
Visibility10 mi
Wind DirectionSE (129.7 °)

Weather ElementTotal
Precipitation---
Heating Degree Days26.7 (Base 65)
Averaged from 39 records on January 7, 2013
WEATHER CONDITIONS BREAKOUT
WIND DIRECTION BREAKOUT
WEATHER BY HOUR - JANUARY 7, 2013
[ °C ]   °F
Local TimeTemperatureDewpointHumidityBarometerVisibilityWind DirectionWind SpeedGust SpeedPrecipitationEventsConditions
12:35 AM28.4 °F17.6 °F64 %30.35 in10.0 miCalmClear
12:55 AM28.4 °F17.6 °F64 %30.35 in10.0 miCalmClear
1:15 AM28.4 °F17.6 °F64 %30.36 in10.0 miCalmClear
1:35 AM26.6 °F19.4 °F74 %30.36 in10.0 miCalmClear
1:55 AM28.4 °F19.4 °F69 %30.36 in10.0 miCalmClear
2:15 AM26.6 °F19.4 °F74 %30.35 in10.0 miSE (130°)3.5 mphClear
2:35 AM26.6 °F19.4 °F74 %30.35 in10.0 miSSE (150°)4.6 mphClear
2:55 AM28.4 °F19.4 °F69 %30.35 in10.0 miSE (140°)6.9 mphClear
3:15 AM26.6 °F19.4 °F74 %30.34 in10.0 miSE (140°)4.6 mphClear
3:35 AM28.4 °F19.4 °F69 %30.33 in10.0 miSE (130°)4.6 mphClear
3:55 AM26.6 °F19.4 °F74 %30.32 in10.0 miSE (130°)4.6 mphClear
4:15 AM26.6 °F19.4 °F74 %30.31 in10.0 miESE (120°)9.2 mphClear
4:35 AM28.4 °F19.4 °F69 %30.31 in10.0 miESE (120°)9.2 mphClear
4:55 AM26.6 °F21.2 °F80 %30.31 in10.0 miESE (120°)8.1 mphClear
5:35 AM26.6 °F21.2 °F80 %30.31 in10.0 miSSE (150°)3.5 mphClear
6:48 AM26.6 °F19.4 °F74 %30.33 in10.0 miSSE (150°)5.8 mphClear
7:53 AM26.6 °F21.2 °F80 %30.35 in10.0 miSSE (160°)5.8 mphClear
8:46 AM30.2 °F23.0 °F75 %30.34 in10.0 miSE (140°)11.5 mphClear
9:46 AM35.6 °F23.0 °F60 %30.35 in10.0 miSE (140°)8.1 mphClear
10:46 AM39.2 °F23.0 °F52 %30.32 in10.0 miSE (140°)16.1 mph20.7 mphPartly Cloudy
11:46 AM42.8 °F23.0 °F46 %30.28 in10.0 miSE (130°)10.4 mphPartly Cloudy
12:48 PM46.4 °F23.0 °F40 %30.25 in10.0 miSouth (180°)8.1 mphScattered Clouds
1:51 PM50.0 °F23.0 °F35 %30.22 in10.0 miSouth (180°)5.8 mphMostly Cloudy
2:46 PM50.0 °F23.0 °F35 %30.20 in10.0 miSSE (150°)6.9 mphMostly Cloudy
3:45 PM50.0 °F23.0 °F35 %30.20 in10.0 miSE (130°)8.1 mphMostly Cloudy
5:50 PM41.0 °F21.2 °F45 %30.17 in10.0 miSE (140°)5.8 mphMostly Cloudy
6:45 PM39.2 °F21.2 °F49 %30.17 in10.0 miSSE (150°)6.9 mphMostly Cloudy
7:55 PM39.2 °F21.2 °F49 %30.17 in10.0 miSSE (150°)4.6 mphScattered Clouds
8:15 PM39.2 °F21.2 °F49 %30.17 in10.0 miSSE (160°)5.8 mphClear
8:35 PM37.4 °F23.0 °F56 %30.17 in10.0 miSSE (150°)4.6 mphClear
8:45 PM37.4 °F26.6 °F65 %30.17 in10.0 miSouth (170°)4.6 mphMostly Cloudy
8:55 PM39.2 °F21.2 °F49 %30.17 in10.0 miSouth (170°)3.5 mphClear
9:15 PM37.4 °F21.2 °F52 %30.16 in10.0 miSSE (160°)6.9 mphClear
9:35 PM39.2 °F19.4 °F45 %30.16 in10.0 miSouth (180°)4.6 mphClear
9:55 PM37.4 °F19.4 °F48 %30.16 in10.0 miSouth (170°)4.6 mphClear
10:15 PM37.4 °F19.4 °F48 %30.15 in10.0 miSSE (160°)4.6 mphClear
10:35 PM37.4 °F19.4 °F48 %30.14 in10.0 miSSE (160°)4.6 mphClear
10:55 PM37.4 °F21.2 °F52 %30.14 in10.0 miSSE (150°)6.9 mphClear
11:35 PM37.4 °F23.0 °F56 %30.14 in10.0 miSSE (160°)6.9 mphClear
Hourly data recorded from KBBG, located miles away from Powersite, Missouri







STORIES FROM OUR PARTNERS